Location: Saratoga Springs
(43.0831°N, 73.7850°W)
Time: 01:42:16
(UTC-04:00)

Vanguard 3 - Pass Details

Date: 01 May 2024
Orbit: 509 x 3232 km, 33.3° (Epoch: 26 May)

Event Time Altitude Azimuth Distance (km) Brightness Sun altitude
Exits shadow 02:14:22 38° 217° (SW) 4,160 10.1 -28.7°
Maximum altitude 02:22:03 54° 167° (SSE) 3,361 9.8 -28.1°
Drops below altitude 10° 02:36:08 10° 95° (E) 4,744 11.3 -27.0°
Sets 02:39:18 0° 91° (E) 5,435 11.7 -26.7°
